[[{"header":{"parameterUnit":"m.s-1","parameterCategory":1,"la1":30.2991,"la2":30.254,"lo1":-89.0895,"lo2":-89.0444,"dy":0.0017,"dx":0.0017,"nx":28,"ny":28,"refTime":"2024-10-10T09:00:00:Z","depth":0,"parameterNumber":2,"parameterNumberName":"U-component_of_WINDS"},"data":[0,0,0,0,0,0,0,0,0,0,0,0,0,0,0,0,0,0,0,0,0,0,0,0,0,0,0,0,0,0,0,0,0,0,0,0,0,0,0,0,0,0,0,0,0,0,0,0,0,0,0,0,0,0,0,0,0,0,-0.3137,-0.3137,0,-0.3133,-0.3133,-0.3133,-0.3133,-0.3133,-0.3133,-0.3133,-0.3129,-0.3128,-0.3128,0,0,0,0,0,0,0,0,0,0,0,0,0,-0.3142,-0.3142,-0.3137,-0.3137,-0.3137,-0.3133,-0.3133,-0.3133,-0.3133,-0.3133,-0.3133,-0.3133,-0.3129,-0.3129,-0.3128,0,0,0,0,0,0,0,0,0,0,0,0,0,-0.3139,-0.3142,-0.3137,-0.3136,-0.3136,-0.3133,-0.3133,-0.3133,-0.3133,-0.3133,-0.3133,-0.3133,-0.3129,-0.3129,-0.3128,-0.3125,0,0,-0.3128,-0.3127,0,0,0,0,0,0,0,0,-0.3139,-0.3139,-0.3136,-0.3136,-0.3136,-0.3133,-0.3133,-0.313,-0.3133,-0.3134,-0.3133,-0.3133,-0.313,-0.313,-0.3129,-0.3125,-0.3125,-0.3128,-0.3127,-0.3127,-0.3127,0,0,0,0,0,0,0,-0.314,-0.3139,-0.3135,-0.3136,-0.3136,-0.3135,-0.3135,-0.3133,-0.3132,-0.3134,-0.3134,-0.3133,-0.313,-0.3129,-0.3129,-0.3125,-0.3128,-0.3127,-0.3127,-0.3127,-0.3116,-0.3116,0,0,0,0,0,0,-0.314,-0.3139,-0.3135,-0.3135,-0.3138,-0.3135,-0.3135,-0.3134,-0.3132,-0.3131,-0.3133,-0.3133,-0.3129,-0.3129,-0.3129,-0.3124,-0.3127,-0.3127,-0.3127,-0.3117,-0.3116,-0.3116,0,0,0,0,0,0,-0.314,-0.314,-0.3135,-0.3137,-0.3137,-0.3135,-0.3134,-0.3134,-0.3133,-0.3131,-0.3131,-0.3133,-0.313,-0.3129,-0.3126,-0.3124,-0.3127,-0.3127,-0.3117,-0.3117,-0.3116,-0.3115,0,0,0,0,0,0,-0.314,-0.314,-0.3139,-0.3137,-0.3136,-0.3133,-0.3134,-0.3134,-0.3133,-0.3133,-0.3131,-0.313,-0.313,-0.3126,-0.3125,-0.3123,-0.3127,-0.3117,-0.3117,-0.3116,-0.3115,-0.3114,-0.3114,0,0,0,0,0,-0.314,-0.3139,-0.3139,-0.3139,-0.3136,-0.3133,-0.3133,-0.3132,-0.3133,-0.3131,-0.313,-0.313,-0.3124,-0.3126,-0.3125,-0.3123,-0.3117,-0.3117,-0.3116,-0.3115,-0.3115,-0.3114,0,0,0,0,0,0,-0.3141,-0.3139,-0.3139,-0.3137,-0.3135,-0.3133,-0.3132,-0.3131,-0.3129,-0.313,-0.3129,-0.3128,-0.3124,-0.3123,-0.3125,-0.3119,-0.3121,-0.312,-0.312,-0.3119,-0.3119,-0.3119,-0.3126,0,0,0,0,0,-0.3141,-0.3139,-0.3137,-0.3136,-0.3135,-0.3133,-0.3132,-0.3132,-0.313,-0.3129,-0.3127,-0.3125,-0.3122,-0.3121,-0.3118,-0.3115,-0.3113,-0.3113,-0.3112,-0.3112,-0.3111,-0.3108,-0.3107,-0.3115,-0.3115,-0.3115,0,0,-0.3141,-0.314,-0.3139,-0.3136,-0.3134,-0.3132,-0.3133,-0.3131,-0.3128,-0.3129,-0.3125,-0.3124,-0.3121,-0.3117,-0.3115,-0.3116,-0.3109,-0.3112,-0.3111,-0.3111,-0.3107,-0.3106,-0.3106,-0.3115,-0.3115,-0.3115,0,0,-0.3139,-0.3139,-0.3136,-0.3135,-0.3132,-0.3131,-0.313,-0.3128,-0.3127,-0.3123,-0.3123,-0.312,-0.3116,-0.3113,-0.3112,-0.3107,-0.3107,-0.3106,-0.3104,-0.31,-0.31,-0.3099,-0.3096,-0.3095,-0.3106,-0.3106,-0.3106,0,-0.314,-0.3136,-0.3135,-0.3133,-0.3131,-0.313,-0.3127,-0.3126,-0.3122,-0.3121,-0.3122,-0.3115,-0.3114,-0.3108,-0.3107,-0.3106,-0.3104,-0.3106,-0.31,-0.3099,-0.3099,-0.3096,-0.3095,-0.3106,-0.3106,-0.3106,-0.3106,0,-0.3136,-0.3133,-0.3132,-0.3128,-0.3126,-0.3123,-0.3121,-0.3119,-0.3118,-0.3117,-0.3112,-0.311,-0.3106,-0.3105,-0.3105,-0.3099,-0.3099,-0.31,-0.3102,-0.3098,-0.3095,-0.3094,-0.3106,-0.3106,-0.3106,-0.3106,0,0,-0.3136,-0.313,-0.313,-0.3127,-0.3123,-0.3121,-0.3118,-0.3114,-0.3111,-0.3109,-0.3105,-0.3101,-0.3101,-0.3099,-0.3098,-0.3095,-0.309,-0.3096,-0.3096,-0.3094,-0.3082,-0.3081,-0.308,-0.3089,-0.3089,-0.3089,-0.3082,0,-0.3133,-0.3127,-0.3125,-0.312,-0.3116,-0.3115,-0.3112,-0.3109,-0.3107,-0.3103,-0.3101,-0.3097,-0.3098,-0.3097,-0.3094,-0.3091,-0.3087,-0.3091,-0.3085,-0.3085,-0.3085,-0.3078,-0.3078,-0.3071,-0.3081,-0.308,-0.308,0,-0.3129,-0.3126,-0.312,-0.3115,-0.3113,-0.3111,-0.3106,-0.3103,-0.3099,-0.3097,-0.3094,-0.3093,-0.3088,-0.309,-0.3083,-0.3086,-0.3083,-0.3081,-0.3081,-0.308,-0.3082,-0.3076,-0.3069,-0.3067,-0.3079,-0.3079,-0.3079,0,-0.3128,-0.3122,-0.3117,-0.3115,-0.311,-0.3108,-0.3105,-0.3101,-0.3098,-0.3094,-0.3092,-0.3087,-0.3085,-0.3081,-0.3078,-0.308,-0.307,-0.3072,-0.3068,-0.3068,-0.3066,-0.3066,-0.3057,-0.3066,-0.3066,-0.3066,-0.3066,0,-0.3125,-0.3121,-0.3117,-0.3114,-0.3109,-0.3106,-0.3101,-0.3099,-0.3095,-0.309,-0.3089,-0.3085,-0.3082,-0.3077,-0.3075,-0.3069,-0.3068,-0.3066,-0.3065,-0.3066,-0.3066,-0.3063,-0.3063,-0.3065,-0.3065,-0.3066,-0.3066,0,-0.3123,-0.312,-0.3115,-0.3109,-0.3108,-0.3104,-0.3099,-0.3096,-0.3093,-0.3088,-0.3086,-0.3082,-0.3076,-0.3073,-0.3066,-0.3064,-0.3057,-0.3057,-0.3058,-0.3058,-0.3053,-0.3053,-0.3042,-0.304,-0.305,-0.305,-0.305,0,-0.3121,-0.3118,-0.3112,-0.3109,-0.3106,-0.3101,-0.3098,-0.3095,-0.3091,-0.3085,-0.3082,-0.3076,-0.3071,-0.3062,-0.3058,-0.3052,-0.3051,-0.3048,-0.3051,-0.305,-0.305,-0.305,-0.3049,-0.3047,-0.3047,-0.3047,-0.3047,0,-0.3118,-0.3116,-0.3111,-0.3105,-0.3101,-0.3097,-0.3092,-0.3089,-0.3085,-0.3081,-0.3075,-0.3071,-0.3063,-0.3057,-0.305,-0.3047,-0.3046,-0.3046,-0.3044,-0.3045,-0.3045,-0.3043,-0.3056,-0.3046,-0.3046,-0.3046,-0.3046,-0.3046,-0.3115,-0.3111,-0.3106,-0.31,-0.3096,-0.3091,-0.3087,-0.3083,-0.3078,-0.3071,-0.307,-0.3063,-0.3057,-0.3048,-0.3044,-0.3038,-0.3039,-0.3037,-0.3037,-0.3036,-0.3035,-0.3046,-0.3037,-0.3037,-0.3037,-0.3037,-0.3037,0,-0.311,-0.3106,-0.3101,-0.3094,-0.3089,-0.3088,-0.3082,-0.3078,-0.3072,-0.3067,-0.3061,-0.3053,-0.3047,-0.3041,-0.3034,-0.3031,-0.303,-0.3029,-0.3029,-0.3028,-0.3036,-0.3037,-0.3029,-0.3029,-0.3029,-0.3029,-0.3029,-0.3029,-0.3107,-0.31,-0.3098,-0.3088,-0.3084,-0.3077,-0.3074,-0.3069,-0.3064,-0.3055,-0.3049,-0.3046,-0.304,-0.3033,-0.3026,-0.3025,-0.3022,-0.302,-0.3019,-0.3026,-0.3027,-0.3028,-0.3029,-0.302,-0.302,-0.3011,-0.3011,-0.3011]},{"header":{"parameterUnit":"m.s-1","parameterCategory":1,"la1":30.2991,"la2":30.254,"lo1":-89.0895,"lo2":-89.0444,"dy":0.0017,"dx":0.0017,"nx":28,"ny":28,"refTime":"2024-10-10T09:00:00:Z","depth":0,"parameterNumber":3,"parameterNumberName":"V-component_of_WINDS"},"data":[0,0,0,0,0,0,0,0,0,0,0,0,0,0,0,0,0,0,0,0,0,0,0,0,0,0,0,0,0,0,0,0,0,0,0,0,0,0,0,0,0,0,0,0,0,0,0,0,0,0,0,0,0,0,0,0,0,0,-2.4405,-2.4405,0,-2.4424,-2.4424,-2.4425,-2.4432,-2.4432,-2.4432,-2.4432,-2.445,-2.445,-2.4451,0,0,0,0,0,0,0,0,0,0,0,0,0,-2.4373,-2.4373,-2.4405,-2.4405,-2.4405,-2.4424,-2.4424,-2.4425,-2.4432,-2.4432,-2.4432,-2.4432,-2.4449,-2.445,-2.4451,0,0,0,0,0,0,0,0,0,0,0,0,0,-2.4389,-2.4374,-2.4405,-2.4412,-2.4412,-2.4424,-2.4425,-2.4425,-2.4432,-2.4432,-2.4432,-2.4432,-2.4449,-2.445,-2.4451,-2.4456,0,0,-2.4453,-2.4453,0,0,0,0,0,0,0,0,-2.4388,-2.439,-2.441,-2.4411,-2.4412,-2.4426,-2.442,-2.4435,-2.4432,-2.4425,-2.4432,-2.4432,-2.4442,-2.4443,-2.4447,-2.4457,-2.4458,-2.4453,-2.4453,-2.4454,-2.4454,0,0,0,0,0,0,0,-2.4387,-2.4389,-2.4412,-2.4411,-2.4412,-2.4413,-2.4415,-2.4423,-2.4433,-2.4425,-2.4426,-2.4428,-2.4442,-2.4446,-2.4447,-2.4458,-2.4453,-2.4454,-2.4454,-2.4454,-2.4476,-2.4476,0,0,0,0,0,0,-2.4385,-2.4388,-2.4412,-2.4413,-2.44,-2.4414,-2.4416,-2.4421,-2.4433,-2.4435,-2.4428,-2.4429,-2.4445,-2.4446,-2.4448,-2.4456,-2.4454,-2.4455,-2.4455,-2.4476,-2.4476,-2.4476,0,0,0,0,0,0,-2.4384,-2.4387,-2.4411,-2.4401,-2.4404,-2.4414,-2.442,-2.4422,-2.4426,-2.4435,-2.4437,-2.4431,-2.4445,-2.4447,-2.4455,-2.4456,-2.4455,-2.4456,-2.4475,-2.4476,-2.4476,-2.4472,0,0,0,0,0,0,-2.4383,-2.4387,-2.4389,-2.4401,-2.4405,-2.4418,-2.442,-2.4422,-2.4427,-2.4428,-2.4438,-2.4439,-2.4445,-2.4454,-2.4455,-2.4457,-2.4456,-2.4475,-2.4475,-2.4476,-2.4471,-2.4472,-2.4472,0,0,0,0,0,-2.4382,-2.4386,-2.4389,-2.4392,-2.4408,-2.4418,-2.442,-2.4427,-2.4427,-2.443,-2.4436,-2.4439,-2.4456,-2.4454,-2.4456,-2.4459,-2.4475,-2.4475,-2.4476,-2.4471,-2.4472,-2.4472,0,0,0,0,0,0,-2.4373,-2.4388,-2.4391,-2.44,-2.4408,-2.4419,-2.4423,-2.4427,-2.4434,-2.4434,-2.4441,-2.4444,-2.4451,-2.4456,-2.4453,-2.4465,-2.4466,-2.4467,-2.4462,-2.4462,-2.4462,-2.446,-2.4457,0,0,0,0,0,-2.4372,-2.438,-2.4392,-2.4398,-2.4402,-2.4412,-2.4416,-2.4421,-2.443,-2.4433,-2.444,-2.4447,-2.4454,-2.4458,-2.4465,-2.4473,-2.4475,-2.4475,-2.4475,-2.4475,-2.4476,-2.448,-2.4481,-2.4477,-2.4477,-2.4477,0,0,-2.437,-2.4379,-2.4383,-2.4397,-2.4404,-2.4411,-2.4415,-2.4422,-2.4427,-2.4433,-2.4442,-2.4447,-2.4456,-2.4464,-2.4468,-2.4468,-2.4478,-2.4476,-2.4476,-2.4476,-2.4481,-2.4481,-2.4481,-2.4477,-2.4477,-2.4477,0,0,-2.437,-2.4378,-2.4384,-2.4392,-2.4403,-2.4409,-2.4411,-2.4422,-2.4427,-2.4435,-2.4441,-2.4447,-2.4459,-2.4465,-2.447,-2.4474,-2.4477,-2.4476,-2.4476,-2.4481,-2.4481,-2.4481,-2.4483,-2.4483,-2.4477,-2.4477,-2.4477,0,-2.4365,-2.4378,-2.4387,-2.4394,-2.44,-2.4408,-2.4414,-2.4421,-2.4433,-2.4436,-2.4437,-2.4453,-2.446,-2.4469,-2.4471,-2.4474,-2.4476,-2.4475,-2.448,-2.4481,-2.4481,-2.4483,-2.4483,-2.4477,-2.4477,-2.4477,-2.4477,0,-2.4372,-2.438,-2.4384,-2.4397,-2.4404,-2.441,-2.442,-2.4426,-2.4431,-2.4437,-2.4446,-2.4454,-2.4464,-2.4466,-2.447,-2.4477,-2.4477,-2.4479,-2.4479,-2.4481,-2.4483,-2.4484,-2.4476,-2.4476,-2.4476,-2.4476,0,0,-2.4364,-2.4385,-2.4386,-2.4392,-2.4406,-2.4412,-2.442,-2.443,-2.4435,-2.4443,-2.445,-2.4461,-2.4463,-2.4468,-2.4473,-2.4477,-2.4481,-2.4479,-2.4479,-2.4479,-2.4489,-2.4487,-2.4488,-2.4483,-2.4484,-2.4484,-2.4488,0,-2.4366,-2.4381,-2.439,-2.4401,-2.4409,-2.4418,-2.4424,-2.4433,-2.444,-2.4447,-2.4454,-2.4462,-2.4464,-2.4468,-2.4472,-2.4479,-2.4483,-2.4479,-2.4489,-2.4489,-2.4486,-2.4489,-2.4486,-2.449,-2.4489,-2.4489,-2.4489,0,-2.4369,-2.4379,-2.4392,-2.4406,-2.4409,-2.4415,-2.4426,-2.4433,-2.4444,-2.4448,-2.4456,-2.4461,-2.4469,-2.447,-2.4481,-2.4479,-2.4483,-2.4488,-2.4488,-2.4488,-2.4489,-2.4489,-2.4491,-2.4492,-2.449,-2.449,-2.449,0,-2.4363,-2.4379,-2.4389,-2.4395,-2.4411,-2.4415,-2.4422,-2.4433,-2.4439,-2.4448,-2.4452,-2.4462,-2.4467,-2.4475,-2.4483,-2.4482,-2.4493,-2.4494,-2.4497,-2.4497,-2.4498,-2.4498,-2.4501,-2.4502,-2.4502,-2.4502,-2.4502,0,-2.4363,-2.437,-2.4387,-2.4393,-2.4401,-2.4412,-2.442,-2.4427,-2.4437,-2.4444,-2.4452,-2.4458,-2.4469,-2.4476,-2.4483,-2.4491,-2.4494,-2.4497,-2.4499,-2.4496,-2.4496,-2.4499,-2.4498,-2.4502,-2.4502,-2.4502,-2.4502,0,-2.4357,-2.4368,-2.4379,-2.4395,-2.44,-2.4405,-2.4418,-2.4424,-2.4432,-2.4441,-2.4444,-2.4456,-2.4465,-2.4475,-2.4487,-2.4491,-2.45,-2.4502,-2.4497,-2.4497,-2.4499,-2.4499,-2.4504,-2.4505,-2.4506,-2.4506,-2.4506,0,-2.4356,-2.4362,-2.4379,-2.4385,-2.4392,-2.4402,-2.4409,-2.442,-2.4427,-2.444,-2.4444,-2.4455,-2.4464,-2.4479,-2.4488,-2.4498,-2.45,-2.4502,-2.4502,-2.4499,-2.45,-2.4499,-2.45,-2.4501,-2.4501,-2.4501,-2.4501,0,-2.4353,-2.4359,-2.4369,-2.4382,-2.439,-2.44,-2.441,-2.4415,-2.4428,-2.4435,-2.4446,-2.4453,-2.4467,-2.4477,-2.4489,-2.4495,-2.45,-2.4501,-2.4502,-2.4499,-2.4496,-2.4498,-2.4496,-2.4501,-2.4501,-2.4501,-2.4501,-2.4501,-2.4349,-2.4355,-2.4369,-2.438,-2.439,-2.4399,-2.4406,-2.4416,-2.4426,-2.4439,-2.4445,-2.4456,-2.4467,-2.4483,-2.449,-2.4498,-2.4499,-2.45,-2.4501,-2.4501,-2.45,-2.4495,-2.45,-2.45,-2.45,-2.45,-2.45,0,-2.4346,-2.4356,-2.4367,-2.4382,-2.4391,-2.4397,-2.4409,-2.4416,-2.4426,-2.4437,-2.4446,-2.4459,-2.447,-2.4481,-2.4492,-2.4496,-2.4499,-2.4499,-2.4498,-2.45,-2.4499,-2.4497,-2.4497,-2.4497,-2.4497,-2.4497,-2.4497,-2.4497,-2.4346,-2.4357,-2.4365,-2.4381,-2.439,-2.4402,-2.4409,-2.4418,-2.4427,-2.4441,-2.4451,-2.4459,-2.4469,-2.4482,-2.4492,-2.4495,-2.4498,-2.4497,-2.4501,-2.4499,-2.45,-2.45,-2.4498,-2.4498,-2.4498,-2.4501,-2.4501,-2.4501]}]]